Regional Weather Roundup
Issued by NWS

Home | Current Version | Previous Version | Graphics & Text | Print | Product List | Glossary On
Versions: 1 2 3 4 5 6 7 8 9 10 11 12 13 14 15 16 17 18 19 20 21 22 23 24 25 26 27 28 29 30 31 32 33 34 35 36 37 38 39 40 41 42 43 44 45 46 47 48 49 50
000
ASUS43 KFSD 250602
RWRSD

WEATHER ROUNDUP FOR SOUTH DAKOTA
NATIONAL WEATHER SERVICE SIOUX FALLS SD
100 AM CDT TUE JUL 25 2017

NOTE: "FAIR" INDICATES FEW OR NO CLOUDS BELOW 12,000 FEET WITH NO
SIGNIFICANT WEATHER AND/OR OBSTRUCTIONS TO VISIBILITY.


SDZ001>005-009-010-012>017-250700-
NORTHWEST AND NORTH CENTRAL SOUTH DAKOTA

CITY           SKY/WX    TMP DP  RH WIND       PRES   REMARKS
BUFFALO          N/A     76  56  49 NE8       29.83S
FAITH            N/A     72  66  81 E10       29.83S
MOBRIDGE       CLEAR     72  65  78 SE14      29.80F
$$

SDZ012>016-024>037-041>051-057-063-072>074-250700-
SOUTHWEST AND SOUTH CENTRAL SOUTH DAKOTA

CITY           SKY/WX    TMP DP  RH WIND       PRES   REMARKS
RAPID CTY ARPT CLEAR     76  53  44 SW3       29.89R
PIERRE         CLEAR     78  63  59 VRB6      29.80S
CUSTER         CLEAR     73  45  36 E10       30.08R
ELLSWORTH AFB  CLEAR     75  56  52 S9        29.90R
PHILIP         CLEAR     71  60  68 E6        29.81R
PINE RIDGE     CLEAR     76  56  49 SW7       29.90S
SPEARFISH      FAIR      75  50  41 SE10      29.91S
WINNER         FAIR      79  68  69 S28G35    29.83F
$$

SDZ004>011-016>023-039-040-250700-
NORTHEAST SOUTH DAKOTA

CITY           SKY/WX    TMP DP  RH WIND       PRES   REMARKS
ABERDEEN       CLEAR     72  66  81 SE12      29.87S
WATERTOWN      CLOUDY    70  65  84 E10       29.95S
BROOKINGS      CLOUDY    71  64  78 SE14      29.95R
SISSETON         N/A     69  67  93 S18G25    29.92R
$$

SDZ017-020-022-023-036>040-048>070-250700-
SOUTHEAST SOUTH DAKOTA

CITY           SKY/WX    TMP DP  RH WIND       PRES   REMARKS
SIOUX FALLS    PTCLDY    73  66  78 SE12      29.94R
HURON          CLEAR     73  66  78 SE12      29.83R
CHAMBERLAIN    CLEAR     83  66  56 S23G33    29.80S
MITCHELL       CLEAR     76  67  73 SE13      29.84R
YANKTON        CLOUDY    77  68  73 SE15      29.90S
$$

ABBREVIATIONS USED IN REMARKS
   TC - TEMPERATURE IN CELSIUS
  WCI - WIND CHILL INDEX
   HX - HEAT INDEX
  VSB - VISIBILITY




USA.gov is the U.S. government's official web portal to all federal, state and local government web resources and services.